FENGYUN 1C DEB, 36200

Orbit data source: Space-Track

FENGYUN 1C DEB, 36200 is space debris in SSO originally from a launch on Mon, 10 May 1999 UTC launched from the Taiyaun Space Center, China (TSC). Fengyun 1C debris stems from the Chinese weather satellite Fengyun-1C, which was intentionally destroyed by a Chinese anti-satellite missile in 2007. This event dramatically increased the amount of space debris, with thousands of trackable fragments posing hazards to satellites and human spaceflight. The Fengyun 1C debris cloud has become a focal point in discussions about space sustainability and the need for international regulations to prevent the creation of new debris.

Loading next visibility...
Identifier
36200, 1999-025DTZ
Orbit
SSO
Country
Flag of CNCN / PRC
Related business
Manufacturer
Unknown
Mission
Spacecraft
Bus & Motor
Unknown
Mass
Unknown
Launch date (UTC)
1999-05-10 (27 years ago)
Launch vehicle
Unknown
Launch site
Taiyaun Space Center, China (TSC)
Object type
Payload
Rocket body
Debris
Shape & HBR
Unknown shape, 0.1 m
Radar Cross Section
Small (<0.1 m²)

Expand to show TLE details & history
Last TLE update: 20 hours ago

TLE from 20 hours ago
0 FENGYUN 1C DEB
1 36200U 99025DTZ 26256.56151051  .00015069  00000-0  25315-2 0  9990
2 36200  99.3833  13.6836 0029447 252.3627 107.4358 14.69478015773839
Epoch: 2026-09-13T13:28Z
TLE epoch observation values (Epoch: 2026-09-13T13:28:34.508Z)
Latitude
Longitude
178.98543°
Altitude
671.963 km
Speed
7.518 km/s
True Right ascension
00h 54m 44s
True Declination
0° 00' 00"
Sunlit
Object was in full shadow at epoch
Visualization orbit readout
Latitude
Unknown
Longitude
Unknown
Altitude
Unknown
Speed
Unknown
Apparent Right ascension
Unknown
Apparent Declination
Unknown
Sunlit
N/A
Visualization observer readout
Local Sidereal Time
01:40:36
Azimuth
Unknown
Elevation
Unknown
Doppler factor
Unknown
Orbital elements
Apogee altitude
680.587 km
Perigee altitude
639.137 km
Semi-major axis
7,037.999 km
Eccentricity
0.00294
Inclination
99.3833°
RAAN
13.6836°
Arg. of periapsis
252.3627°
True anomaly
107.75738°
Mean anomaly
107.4358°
Eccentric anomaly
107.59662°
Mean motion
3.67595 °/min
Orbital period
97.93 mins
BSTAR
0.0025315
Loading maneuver chart data...
Computing Atmospheric mass density...
Loading historical data...
Loading historical data...
Loading historical data...
Loading historical data...
Loading historical data...
Loading historical data...
Loading historical data...

Documentation

Showing up to 5 results
|